Cloud_Cover
15 9 1 0 0 0 0 0 0 0 2 0 0 82 5 5 4 0 0 2 0 5 32 100 56 51 35 96 100 100 100 100 100 100 100 61 17 85 20 5 63 26 3 1 1
13 5 0 0 0 0 0 0 0 0 0 1 0 23 6 5 0 0 0 0 4 5 5 83 97 94 76 29 100 100 100 100 100 100 91 80 48 5 5 76 39 98 100 2 90
0 0 0 0 0 0 0 0 0 0 0 11 4 3 9 5 4 0 0 0 5 0 5 49 100 100 30 46 100 100 100 100 100 100 100 24 54 85 21 100 56 98 71 5 33
0 0 0 0 0 0 0 0 0 0 0 8 0 0 5 5 0 4 1 0 2 5 5 5 61 100 100 66 100 100 100 100 100 100 97 50 86 92 97 55 95 95 43 23 24
0 0 0 0 3 12 2 0 0 0 0 4 7 0 0 5 0 1 0 0 0 5 5 5 96 100 89 92 100 100 100 100 100 100 98 10 60 25 13 5 5 93 79 87 6
0 0 8 23 20 22 11 0 0 0 0 0 0 27 0 0 0 0 0 5 2 0 5 5 22 100 100 100 100 100 100 78 55 72 100 70 24 5 8 5 77 73 29 98 62
0 14 40 39 22 21 15 0 0 0 0 0 0 0 0 0 0 0 0 0 5 0 2 5 28 10 100 19 21 100 36 25 80 95 100 13 6 68 98 70 87 5 5 100 5
36 100 100 9 15 16 7 0 0 0 0 0 0 0 0 0 0 0 0 0 0 4 0 0 5 0 14 29 79 94 91 62 100 82 41 20 19 5 100 94 5 100 99 82 5
25 25 2 1 1 1 0 0 0 0 0 0 0 0 0 0 0 0 0 0 0 0 0 0 3 0 5 5 36 100 95 18 100 100 100 81 10 10 38 0 5 33 66 8 2
14 20 1 4 5 0 0 0 0 0 0 0 0 0 0 0 0 0 0 0 0 0 0 0 0 0 3 5 3 18 34 94 100 83 94 94 92 0 1 0 44 5 5 4 0
10 23 6 0 0 0 2 0 0 0 0 0 0 0 0 0 0 0 0 0 0 0 0 0 0 0 0 5 38 91 100 92 19 100 99 100 100 5 3 42 2 37 5 5 4
1 21 4 0 0 6 1 0 0 0 0 0 0 0 0 0 0 0 0 0 0 0 0 0 0 0 0 4 5 10 7 59 100 35 87 67 61 8 5 6 11 0 1 4 5
0 0 0 0 8 0 0 0 0 0 0 0 0 0 0 0 0 0 0 0 0 0 0 0 0 0 0 0 0 5 5 58 99 81 99 94 61 0 47 1 0 0 0 0 0
0 0 0 6 0 0 0 0 0 0 0 0 0 0 0 0 0 0 0 0 0 0 0 0 0 0 0 0 0 0 5 18 78 100 100 94 25 0 0 0 0 0 0 0 0
0 0 0 0 0 0 0 0 0 0 0 0 0 0 0 0 0 0 0 0 0 0 0 0 0 0 0 0 1 0 4 90 100 75 73 79 59 0 10 0 0 12 2 0 0
0 0 12 28 0 0 0 0 0 0 0 0 0 0 0 0 0 0 0 0 0 0 0 0 0 0 0 0 1 4 4 87 88 100 16 56 5 4 88 4 5 5 4 0 0
0 0 51 0 0 0 0 0 0 0 0 0 0 0 0 0 0 0 0 0 0 0 0 0 0 0 0 0 0 5 2 27 66 57 7 99 26 2 5 5 28 22 7 4 0
0 32 0 0 0 0 0 0 0 0 0 0 0 0 0 0 0 0 0 0 0 0 0 0 0 0 0 0 0 5 42 12 32 5 1 1 2 0 1 66 3 5 79 4 0
3 0 0 0 0 0 0 0 0 0 0 0 0 0 0 0 0 0 0 0 0 0 0 0 0 0 0 0 0 0 86 1 61 5 64 77 12 97 100 63 5 4 1 0 0
0 0 0 0 0 0 0 0 0 0 0 0 0 0 0 0 0 0 0 0 0 0 0 0 0 0 0 0 0 0 0 43 34 2 52 15 94 58 95 6 14 4 4 0 0
0 0 0 0 0 0 0 0 5 0 0 0 0 0 0 0 0 0 0 0 0 0 0 0 0 0 0 0 0 0 0 34 100 29 2 1 3 93 77 100 47 12 6 1 0
0 53 0 0 0 0 3 0 0 0 0 0 0 0 0 0 0 0 0 0 0 0 0 55 0 0 0 0 0 0 64 62 100 24 0 25 1 98 100 66 85 100 6 4 1
0 8 2 0 0 0 5 21 2 0 0 0 0 0 0 0 0 0 0 0 0 0 0 23 99 4 0 0 0 0 39 76 100 12 2 4 25 100 97 90 86 96 100 3 99
0 1 12 3 1 0 0 0 0 1 0 0 0 0 0 0 0 0 0 0 0 4 3 0 39 100 26 0 0 4 64 100 84 94 30 2 25 100 78 57 100 90 13 8 84
0 0 0 0 3 0 0 0 0 5 2 0 0 0 0 0 0 0 0 0 0 0 0 0 1 99 70 0 74 5 96 100 100 88 86 9 76 100 83 43 96 23 21 90 100
0 0 0 0 0 0 0 0 2 5 4 5 0 0 0 0 0 0 0 0 0 0 0 0 0 64 86 50 80 85 100 100 100 27 36 67 28 100 88 6 0 6 100 100 100
0 0 0 0 0 3 13 4 5 5 5 5 5 5 0 0 0 0 0 0 0 0 0 0 0 96 26 100 88 100 100 38 51 87 55 100 87 77 37 1 4 29 92 100 100